Location: El Portezuelo
(28.4984°N, 16.3589°W)
Time: 09:43:52
(UTC+00:00)

Cosmos 1980 Rocket - Pass Details

Date: 20 January 2020
Orbit: 830 x 849 km, 71.0° (Epoch: 18 February)

Event Time Altitude Azimuth Distance (km) Brightness Sun altitude
Rises 06:22:51 0° 210° (SSW) 3,396 5.2 -20.8°
Reaches altitude 10° 06:25:21 10° 215° (SW) 2,464 4.4 -20.3°
Maximum altitude 06:30:52 53° 291° (WNW) 1,037 2.3 -19.1°
Drops below altitude 10° 06:36:24 10° 8° (N) 2,470 4.6 -17.9°
Sets 06:38:55 0° 13° (NNE) 3,405 5.4 -17.4°
